When you browse on this site, cookies collect data to enhance your experience and personalize the content and advertising you see.
Visit our Privacy Policy to learn more. By continuing to use the site, you agree to this use of cookies and data.
  • In United Kingdom
  • List of Countries
  • For 7 days
  • Water Temperature
  • Weather Map
  • Weather Widgets
  • user-avatar
    Login

    Hourly Weather Malanville

    Today, 20 October, Sunday

    Time Temperature Precipitation Wind Pressure Humidity
    00:00 +27°C° 0 mm 3 mps 744 mmHg 76%
    01:00 +27°C° 0 mm 3 mps 743 mmHg 77%
    02:00 +27°C° 0 mm 2 mps 743 mmHg 77%
    03:00 +27°C° 0 mm 2 mps 742 mmHg 77%
    04:00 +27°C° 0 mm 2 mps 743 mmHg 80%
    05:00 +26°C° 0 mm 3 mps 743 mmHg 82%
    06:00 +26°C° 0 mm 3 mps 744 mmHg 83%
    07:00 +27°C° 0 mm 3 mps 744 mmHg 77%
    08:00 +29°C° 0 mm 3 mps 744 mmHg 70%
    09:00 +30°C° 0 mm 3 mps 745 mmHg 63%
    10:00 +33°C° 0 mm 3 mps 744 mmHg 58%
    11:00 +34°C° 0 mm 4 mps 743 mmHg 52%
    12:00 +36°C° 0 mm 4 mps 743 mmHg 46%
    13:00 +36°C° 0 mm 4 mps 742 mmHg 46%
    14:00 +36°C° 0 mm 4 mps 742 mmHg 46%
    15:00 +36°C° 0 mm 4 mps 741 mmHg 46%
    16:00 +34°C° 0.1 mm 3 mps 742 mmHg 52%
    17:00 +33°C° 0.1 mm 3 mps 742 mmHg 59%
    18:00 +30°C° 0.1 mm 3 mps 743 mmHg 65%
    19:00 +29°C° 0 mm 3 mps 743 mmHg 67%
    20:00 +29°C° 0 mm 3 mps 744 mmHg 69%
    21:00 +28°C° 0 mm 3 mps 744 mmHg 72%
    22:00 +28°C° 0 mm 3 mps 744 mmHg 74%
    23:00 +28°C° 0 mm 3 mps 744 mmHg 77%

    Tomorrow, 21 October, Monday

    Time Temperature Precipitation Wind Pressure Humidity
    00:00 +27°C° 0 mm 4 mps 744 mmHg 80%
    01:00 +27°C° 0 mm 3 mps 744 mmHg 82%
    02:00 +26°C° 0 mm 2 mps 744 mmHg 84%
    03:00 +26°C° 0 mm 2 mps 744 mmHg 87%
    04:00 +26°C° 0 mm 2 mps 744 mmHg 87%
    05:00 +26°C° 0 mm 2 mps 744 mmHg 88%
    06:00 +25°C° 0 mm 2 mps 745 mmHg 88%
    07:00 +27°C° 0 mm 2 mps 745 mmHg 79%
    08:00 +29°C° 0 mm 2 mps 745 mmHg 71%
    09:00 +31°C° 0 mm 2 mps 745 mmHg 62%
    10:00 +32°C° 0 mm 2 mps 745 mmHg 56%
    11:00 +35°C° 0 mm 2 mps 744 mmHg 50%
    12:00 +36°C° 0 mm 2 mps 743 mmHg 44%
    13:00 +37°C° 0 mm 2 mps 743 mmHg 42%
    14:00 +37°C° 0 mm 2 mps 742 mmHg 41%
    15:00 +38°C° 0 mm 2 mps 742 mmHg 39%
    16:00 +36°C° 0 mm 2 mps 742 mmHg 44%
    17:00 +34°C° 0 mm 1 mps 742 mmHg 48%
    18:00 +32°C° 0 mm 1 mps 742 mmHg 52%
    19:00 +32°C° 0.3 mm 2 mps 742 mmHg 56%
    20:00 +31°C° 0.3 mm 2 mps 742 mmHg 59%
    21:00 +30°C° 0.3 mm 2 mps 743 mmHg 62%
    22:00 +30°C° 0 mm 2 mps 742 mmHg 64%
    23:00 +29°C° 0 mm 3 mps 742 mmHg 67%

    Day after tomorrow, 22 October, Tuesday

    Time Temperature Precipitation Wind Pressure Humidity
    00:00 +29°C° 0 mm 3 mps 742 mmHg 69%
    01:00 +29°C° 0 mm 3 mps 742 mmHg 70%
    02:00 +28°C° 0 mm 3 mps 741 mmHg 71%
    03:00 +28°C° 0 mm 2 mps 741 mmHg 72%
    04:00 +28°C° 0 mm 2 mps 742 mmHg 74%
    05:00 +27°C° 0 mm 2 mps 742 mmHg 77%
    06:00 +27°C° 0 mm 2 mps 742 mmHg 79%
    07:00 +29°C° 0 mm 2 mps 743 mmHg 71%
    08:00 +31°C° 0 mm 3 mps 743 mmHg 63%
    09:00 +34°C° 0 mm 3 mps 743 mmHg 56%
    10:00 +36°C° 0 mm 3 mps 742 mmHg 50%
    11:00 +38°C° 0 mm 2 mps 742 mmHg 43%
    12:00 +39°C° 0 mm 2 mps 741 mmHg 37%
    13:00 +40°C° 0 mm 2 mps 740 mmHg 35%
    14:00 +40°C° 0 mm 2 mps 740 mmHg 32%
    15:00 +40°C° 0 mm 2 mps 739 mmHg 30%
    16:00 +39°C° 0 mm 2 mps 739 mmHg 35%
    17:00 +36°C° 0 mm 1 mps 739 mmHg 39%
    18:00 +34°C° 0 mm 1 mps 739 mmHg 44%
    19:00 +34°C° 0 mm 2 mps 740 mmHg 46%
    20:00 +34°C° 0 mm 2 mps 740 mmHg 49%
    21:00 +32°C° 0 mm 2 mps 741 mmHg 51%
    22:00 +32°C° 0 mm 2 mps 741 mmHg 53%
    23:00 +31°C° 0 mm 2 mps 741 mmHg 56%

    23 October, Wednesday

    Time Temperature Precipitation Wind Pressure Humidity
    00:00 +31°C° 0 mm 3 mps 741 mmHg 59%
    01:00 +30°C° 0 mm 2 mps 740 mmHg 62%
    02:00 +29°C° 0 mm 2 mps 740 mmHg 66%
    03:00 +29°C° 0 mm 2 mps 740 mmHg 69%
    04:00 +29°C° 0 mm 2 mps 740 mmHg 72%
    05:00 +28°C° 0 mm 2 mps 741 mmHg 74%
    06:00 +28°C° 0 mm 2 mps 741 mmHg 77%
    07:00 +30°C° 0 mm 2 mps 742 mmHg 71%
    08:00 +31°C° 0 mm 2 mps 742 mmHg 65%
    09:00 +34°C° 0 mm 2 mps 743 mmHg 59%
    10:00 +34°C° 0 mm 1 mps 742 mmHg 52%
    11:00 +36°C° 0 mm 1 mps 741 mmHg 46%
    12:00 +37°C° 0 mm 1 mps 741 mmHg 40%
    13:00 +39°C° 0 mm 1 mps 740 mmHg 37%
    14:00 +39°C° 0 mm 2 mps 740 mmHg 34%
    15:00 +40°C° 0 mm 2 mps 739 mmHg 31%
    16:00 +38°C° 0 mm 2 mps 740 mmHg 36%
    17:00 +36°C° 0 mm 3 mps 740 mmHg 41%
    18:00 +35°C° 0 mm 3 mps 740 mmHg 45%
    19:00 +34°C° 0 mm 3 mps 741 mmHg 51%
    20:00 +33°C° 0 mm 3 mps 741 mmHg 56%
    21:00 +32°C° 0 mm 4 mps 742 mmHg 61%
    22:00 +30°C° 0 mm 3 mps 742 mmHg 65%
    23:00 +30°C° 0 mm 3 mps 741 mmHg 69%

    24 October, Thursday

    Time Temperature Precipitation Wind Pressure Humidity
    00:00 +29°C° 0 mm 3 mps 741 mmHg 73%
    01:00 +29°C° 0 mm 3 mps 741 mmHg 76%
    02:00 +28°C° 0 mm 2 mps 741 mmHg 78%
    03:00 +27°C° 0 mm 2 mps 741 mmHg 80%
    04:00 +27°C° 0 mm 2 mps 742 mmHg 82%
    05:00 +27°C° 0 mm 2 mps 742 mmHg 84%
    06:00 +27°C° 0 mm 2 mps 742 mmHg 86%
    07:00 +28°C° 0 mm 1 mps 743 mmHg 78%
    08:00 +30°C° 0 mm 1 mps 743 mmHg 70%
    09:00 +32°C° 0 mm 1 mps 744 mmHg 62%
    10:00 +34°C° 0 mm 1 mps 743 mmHg 54%
    11:00 +36°C° 0 mm 1 mps 742 mmHg 46%
    12:00 +37°C° 0 mm 1 mps 742 mmHg 38%
    13:00 +39°C° 0 mm 1 mps 741 mmHg 35%
    14:00 +39°C° 0 mm 2 mps 741 mmHg 31%
    15:00 +40°C° 0 mm 3 mps 740 mmHg 28%
    16:00 +38°C° 0 mm 2 mps 740 mmHg 32%
    17:00 +36°C° 0 mm 2 mps 740 mmHg 37%
    18:00 +34°C° 0 mm 2 mps 740 mmHg 41%
    19:00 +34°C° 0 mm 2 mps 741 mmHg 43%
    20:00 +32°C° 0 mm 2 mps 741 mmHg 46%
    21:00 +31°C° 0 mm 2 mps 742 mmHg 48%
    22:00 +31°C° 0 mm 2 mps 742 mmHg 50%
    23:00 +30°C° 0 mm 2 mps 742 mmHg 51%

    25 October, Friday

    Time Temperature Precipitation Wind Pressure Humidity
    00:00 +30°C° 0 mm 2 mps 742 mmHg 53%
    01:00 +29°C° 0 mm 2 mps 742 mmHg 55%
    02:00 +29°C° 0 mm 2 mps 741 mmHg 58%
    03:00 +28°C° 0 mm 3 mps 741 mmHg 61%
    04:00 +28°C° 0 mm 2 mps 742 mmHg 65%
    05:00 +27°C° 0 mm 2 mps 742 mmHg 68%
    06:00 +27°C° 0 mm 2 mps 742 mmHg 72%
    07:00 +29°C° 0 mm 2 mps 743 mmHg 65%
    08:00 +31°C° 0 mm 1 mps 743 mmHg 58%
    09:00 +33°C° 0 mm 1 mps 743 mmHg 50%
    10:00 +36°C° 0 mm 2 mps 743 mmHg 42%
    11:00 +38°C° 0 mm 2 mps 742 mmHg 33%
    12:00 +40°C° 0 mm 2 mps 741 mmHg 25%
    13:00 +40°C° 0 mm 3 mps 741 mmHg 23%
    14:00 +40°C° 0 mm 3 mps 740 mmHg 22%
    15:00 +40°C° 0 mm 3 mps 739 mmHg 21%
    16:00 +38°C° 0 mm 3 mps 740 mmHg 24%
    17:00 +36°C° 0 mm 2 mps 740 mmHg 26%
    18:00 +33°C° 0 mm 1 mps 740 mmHg 29%
    19:00 +32°C° 0 mm 2 mps 740 mmHg 30%
    20:00 +31°C° 0 mm 2 mps 741 mmHg 31%
    21:00 +31°C° 0 mm 2 mps 741 mmHg 32%
    22:00 +30°C° 0 mm 2 mps 741 mmHg 36%
    23:00 +29°C° 0 mm 2 mps 741 mmHg 39%
    Show more